| time (UTC) | temp F | wind direction | speed MPH | gust MPH | rain 1hr in | rain 24hr in | rain mn in | humidity % | barometer mb |
| 20260506174526 | 59 | 340 | 3.0 | 4.0 | 0.00 | 0.24 | 0.13 | 80 | 1013.6 |
| 20260506174032 | 59 | 333 | 3.0 | 4.0 | 0.00 | 0.24 | 0.13 | 80 | 1013.6 |
| 20260506173539 | 59 | 359 | 2.0 | 4.0 | 0.00 | 0.24 | 0.13 | 80 | 1013.6 |
| 20260506173031 | 59 | 359 | 1.0 | 4.0 | 0.00 | 0.24 | 0.13 | 80 | 1013.6 |
| 20260506172539 | 59 | 321 | 2.0 | 5.0 | 0.00 | 0.24 | 0.13 | 80 | 1013.6 |
| 20260506172023 | 59 | 1 | 4.0 | 5.0 | 0.00 | 0.24 | 0.13 | 80 | 1013.6 |
| 20260506171533 | 59 | 360 | 4.0 | 5.0 | 0.00 | 0.24 | 0.13 | 80 | 1013.6 |
| 20260506171039 | 59 | 360 | 4.0 | 6.0 | 0.00 | 0.24 | 0.13 | 80 | 1013.6 |
| 20260506170600 | 59 | 359 | 4.0 | 6.0 | 0.00 | 0.24 | 0.13 | 80 | 1013.6 |
| 20260506170023 | 59 | 359 | 2.0 | 5.0 | 0.00 | 0.24 | 0.13 | 80 | 1013.6 |
| 20260506165530 | 60 | 322 | 2.0 | 7.0 | 0.00 | 0.24 | 0.13 | 80 | 1013.6 |
| 20260506164521 | 60 | 302 | 3.0 | 9.0 | 0.00 | 0.24 | 0.13 | 80 | 1013.6 |
| 20260506163535 | 60 | 309 | 4.0 | 8.0 | 0.00 | 0.24 | 0.13 | 80 | 1013.6 |
| 20260506163025 | 60 | 354 | 4.0 | 8.0 | 0.00 | 0.24 | 0.13 | 80 | 1013.6 |
| 20260506162535 | 60 | 360 | 4.0 | 9.0 | 0.00 | 0.24 | 0.13 | 80 | 1013.7 |
| 20260506162038 | 60 | 326 | 6.0 | 9.0 | 0.00 | 0.24 | 0.13 | 80 | 1013.7 |
| 20260506161525 | 60 | 356 | 5.0 | 8.0 | 0.00 | 0.24 | 0.13 | 80 | 1013.7 |
| 20260506161032 | 59 | 328 | 4.0 | 9.0 | 0.00 | 0.24 | 0.13 | 80 | 1013.8 |
| 20260506160554 | 59 | 325 | 5.0 | 9.0 | 0.00 | 0.24 | 0.13 | 80 | 1013.8 |
| 20260506160037 | 59 | 302 | 5.0 | 10.0 | 0.00 | 0.24 | 0.13 | 80 | 1013.8 |
| 20260506155525 | 60 | 323 | 5.0 | 10.0 | 0.00 | 0.24 | 0.13 | 80 | 1013.9 |
| 20260506155039 | 60 | 359 | 6.0 | 9.0 | 0.00 | 0.24 | 0.13 | 80 | 1013.9 |
| 20260506154525 | 60 | 350 | 5.0 | 10.0 | 0.00 | 0.24 | 0.13 | 80 | 1013.9 |
| 20260506154035 | 61 | 290 | 3.0 | 10.0 | 0.00 | 0.24 | 0.13 | 80 | 1014.0 |
| 20260506153523 | 60 | 297 | 5.0 | 8.0 | 0.00 | 0.24 | 0.13 | 80 | 1014.0 |
| 20260506153029 | 60 | 311 | 5.0 | 10.0 | 0.00 | 0.24 | 0.13 | 80 | 1014.0 |
| 20260506152538 | 60 | 297 | 5.0 | 10.0 | 0.00 | 0.24 | 0.13 | 80 | 1014.1 |
| 20260506152023 | 60 | 327 | 3.0 | 7.0 | 0.00 | 0.24 | 0.13 | 80 | 1014.1 |
| 20260506150602 | 60 | 340 | 7.0 | 11.0 | 0.00 | 0.24 | 0.13 | 80 | 1014.1 |
| 20260506150024 | 60 | 323 | 4.0 | 11.0 | 0.00 | 0.24 | 0.13 | 80 | 1014.1 |
| 20260506145035 | 61 | 339 | 5.0 | 11.0 | 0.00 | 0.29 | 0.13 | 80 | 1014.2 |
| 20260506144524 | 61 | 329 | 6.0 | 11.0 | 0.00 | 0.29 | 0.13 | 80 | 1014.2 |
| 20260506144035 | 60 | 301 | 4.0 | 10.0 | 0.00 | 0.29 | 0.13 | 80 | 1014.3 |
| 20260506142523 | 61 | 346 | 6.0 | 11.0 | 0.00 | 0.29 | 0.13 | 80 | 1014.4 |
| 20260506142031 | 61 | 359 | 3.0 | 9.0 | 0.00 | 0.29 | 0.13 | 80 | 1014.4 |
| 20260506141540 | 60 | 250 | 6.0 | 11.0 | 0.00 | 0.29 | 0.13 | 80 | 1014.4 |
| 20260506141040 | 60 | 295 | 4.0 | 12.0 | 0.00 | 0.29 | 0.13 | 80 | 1014.5 |
| 20260506135534 | 61 | 347 | 7.0 | 11.0 | 0.00 | 0.29 | 0.13 | 80 | 1014.6 |
| 20260506135039 | 61 | 290 | 3.0 | 10.0 | 0.00 | 0.29 | 0.13 | 80 | 1014.6 |
| 20260506134527 | 61 | 302 | 4.0 | 12.0 | 0.00 | 0.29 | 0.13 | 80 | 1014.6 |
| 20260506134030 | 61 | 307 | 9.0 | 12.0 | 0.00 | 0.29 | 0.13 | 80 | 1014.7 |
| 20260506133523 | 61 | 303 | 7.0 | 11.0 | 0.00 | 0.29 | 0.13 | 80 | 1014.7 |
| 20260506132539 | 61 | 333 | 6.0 | 12.0 | 0.00 | 0.29 | 0.13 | 80 | 1014.6 |
| 20260506132026 | 61 | 276 | 7.0 | 12.0 | 0.00 | 0.29 | 0.13 | 80 | 1014.6 |
| 20260506131039 | 62 | 295 | 9.0 | 14.0 | 0.00 | 0.29 | 0.13 | 80 | 1014.6 |
| 20260506130559 | 61 | 285 | 8.0 | 11.0 | 0.00 | 0.29 | 0.13 | 80 | 1014.6 |
| 20260506130040 | 61 | 339 | 8.0 | 11.0 | 0.00 | 0.29 | 0.13 | 80 | 1014.6 |
| 20260506125039 | 61 | 292 | 6.0 | 12.0 | 0.00 | 0.29 | 0.13 | 80 | 1014.7 |
| 20260506124527 | 61 | 312 | 5.0 | 14.0 | 0.00 | 0.29 | 0.13 | 80 | 1014.7 |
| 20260506124029 | 61 | 294 | 6.0 | 14.0 | 0.00 | 0.29 | 0.13 | 80 | 1014.7 |
| 20260506123522 | 61 | 304 | 7.0 | 13.0 | 0.00 | 0.29 | 0.13 | 80 | 1014.7 |
| 20260506122539 | 61 | 295 | 7.0 | 13.0 | 0.00 | 0.29 | 0.13 | 80 | 1014.7 |
| 20260506122024 | 61 | 278 | 6.0 | 12.0 | 0.00 | 0.29 | 0.13 | 80 | 1014.7 |
| 20260506121533 | 61 | 289 | 9.0 | 12.0 | 0.00 | 0.29 | 0.13 | 80 | 1014.7 |
| 20260506121021 | 61 | 290 | 7.0 | 13.0 | 0.00 | 0.29 | 0.13 | 80 | 1014.7 |
| 20260506120543 | 61 | 257 | 6.0 | 13.0 | 0.00 | 0.29 | 0.13 | 80 | 1014.7 |
| 20260506120025 | 61 | 248 | 5.0 | 13.0 | 0.00 | 0.29 | 0.13 | 80 | 1014.7 |
| 20260506115535 | 61 | 311 | 7.0 | 14.0 | 0.00 | 0.29 | 0.13 | 80 | 1014.7 |
| 20260506115038 | 60 | 224 | 6.0 | 14.0 | 0.00 | 0.29 | 0.13 | 80 | 1014.6 |
| 20260506114529 | 60 | 248 | 5.0 | 11.0 | 0.00 | 0.29 | 0.13 | 80 | 1014.6 |
| 20260506113524 | 60 | 269 | 5.0 | 14.0 | 0.00 | 0.29 | 0.13 | 80 | 1014.6 |
| 20260506113030 | 60 | 317 | 8.0 | 13.0 | 0.00 | 0.29 | 0.13 | 80 | 1014.6 |
| 20260506112025 | 60 | 272 | 7.0 | 13.0 | 0.00 | 0.29 | 0.13 | 80 | 1014.6 |
| 20260506111024 | 60 | 283 | 9.0 | 14.0 | 0.00 | 0.29 | 0.13 | 80 | 1014.6 |
| 20260506110603 | 60 | 255 | 6.0 | 15.0 | 0.00 | 0.29 | 0.13 | 80 | 1014.6 |
| 20260506105531 | 60 | 295 | 5.0 | 14.0 | 0.00 | 0.29 | 0.13 | 80 | 1014.6 |
| 20260506105036 | 60 | 317 | 4.0 | 12.0 | 0.00 | 0.29 | 0.13 | 80 | 1014.6 |
| 20260506103035 | 60 | 313 | 8.0 | 14.0 | 0.01 | 0.29 | 0.13 | 80 | 1014.6 |
| 20260506102034 | 59 | 250 | 4.0 | 13.0 | 0.01 | 0.29 | 0.13 | 80 | 1014.6 |
| 20260506101539 | 59 | 250 | 4.0 | 12.0 | 0.01 | 0.29 | 0.13 | 80 | 1014.6 |
| 20260506101025 | 59 | 253 | 5.0 | 12.0 | 0.01 | 0.29 | 0.13 | 80 | 1014.6 |
| 20260506100544 | 59 | 236 | 5.0 | 12.0 | 0.01 | 0.29 | 0.13 | 80 | 1014.6 |
| 20260506095540 | 58 | 228 | 8.0 | 11.0 | 0.02 | 0.29 | 0.13 | 80 | 1014.5 |
| 20260506095026 | 57 | 300 | 5.0 | 11.0 | 0.02 | 0.29 | 0.13 | 80 | 1014.5 |
| 20260506094035 | 57 | 258 | 4.0 | 17.0 | 0.03 | 0.29 | 0.13 | 80 | 1014.5 |
| 20260506093032 | 56 | 248 | 4.0 | 11.0 | 0.02 | 0.28 | 0.12 | 80 | 1014.5 |
| 20260506092523 | 56 | 249 | 5.0 | 14.0 | 0.02 | 0.28 | 0.12 | 80 | 1014.5 |
| 20260506092029 | 56 | 259 | 8.0 | 14.0 | 0.02 | 0.28 | 0.12 | 80 | 1014.5 |
| 20260506091538 | 56 | 271 | 6.0 | 16.0 | 0.02 | 0.28 | 0.12 | 80 | 1014.5 |
| 20260506091024 | 56 | 276 | 3.0 | 18.0 | 0.02 | 0.28 | 0.12 | 80 | 1014.4 |
| 20260506090546 | 57 | 226 | 8.0 | 18.0 | 0.02 | 0.28 | 0.12 | 80 | 1014.4 |
| 20260506090030 | 57 | 297 | 4.0 | 16.0 | 0.02 | 0.28 | 0.11 | 80 | 1014.4 |
| 20260506085537 | 57 | 271 | 8.0 | 13.0 | 0.02 | 0.28 | 0.11 | 80 | 1014.4 |
| 20260506084027 | 57 | 289 | 5.0 | 13.0 | 0.00 | 0.26 | 0.09 | 80 | 1014.3 |
| 20260506083535 | 57 | 266 | 7.0 | 12.0 | 0.00 | 0.26 | 0.09 | 80 | 1014.3 |
| 20260506083026 | 57 | 262 | 5.0 | 13.0 | 0.00 | 0.26 | 0.09 | 80 | 1014.3 |
| 20260506082020 | 57 | 266 | 5.0 | 18.0 | 0.00 | 0.26 | 0.09 | 80 | 1014.2 |
| 20260506081530 | 57 | 267 | 6.0 | 13.0 | 0.00 | 0.26 | 0.09 | 80 | 1014.2 |
| 20260506081036 | 57 | 263 | 5.0 | 13.0 | 0.00 | 0.26 | 0.09 | 80 | 1014.1 |
| 20260506080557 | 57 | 259 | 5.0 | 14.0 | 0.00 | 0.26 | 0.09 | 80 | 1014.1 |
| 20260506073523 | 57 | 238 | 8.0 | 15.0 | 0.00 | 0.26 | 0.09 | 80 | 1013.9 |
| 20260506073029 | 57 | 256 | 5.0 | 18.0 | 0.00 | 0.26 | 0.09 | 80 | 1013.9 |
| 20260506072025 | 57 | 290 | 8.0 | 18.0 | 0.00 | 0.26 | 0.09 | 80 | 1013.8 |
| 20260506071535 | 56 | 338 | 5.0 | 13.0 | 0.00 | 0.26 | 0.09 | 80 | 1013.8 |
| 20260506071022 | 56 | 248 | 5.0 | 12.0 | 0.00 | 0.26 | 0.09 | 80 | 1013.8 |
| 20260506070544 | 56 | 252 | 6.0 | 11.0 | 0.00 | 0.26 | 0.09 | 80 | 1013.8 |
| 20260506062028 | 54 | 182 | 5.0 | 10.0 | 0.00 | 0.26 | 0.09 | 80 | 1013.5 |
| 20260506061536 | 54 | 247 | 5.0 | 10.0 | 0.00 | 0.26 | 0.09 | 80 | 1013.5 |
| 20260506060601 | 53 | 269 | 1.0 | 5.0 | 0.00 | 0.26 | 0.09 | 80 | 1013.5 |
| 20260506051025 | 52 | 225 | 1.0 | 7.0 | 0.00 | 0.26 | 0.09 | 80 | 1013.1 |
| 20260506050546 | 52 | 219 | 2.0 | 7.0 | 0.00 | 0.26 | 0.09 | 80 | 1013.1 |
| 20260506045024 | 52 | 235 | 1.0 | 6.0 | 0.00 | 0.26 | 0.09 | 80 | 1013.1 |
| 20260506044535 | 52 | 233 | 3.0 | 7.0 | 0.00 | 0.26 | 0.09 | 80 | 1013.1 |
| 20260506044038 | 52 | 211 | 4.0 | 9.0 | 0.00 | 0.26 | 0.09 | 80 | 1013.1 |
| 20260506043526 | 52 | 232 | 2.0 | 9.0 | 0.00 | 0.26 | 0.09 | 80 | 1013.1 |
| 20260506043033 | 52 | 229 | 5.0 | 9.0 | 0.00 | 0.26 | 0.09 | 80 | 1013.1 |
| 20260506042522 | 52 | 229 | 3.0 | 7.0 | 0.00 | 0.26 | 0.09 | 80 | 1013.1 |
| 20260506042026 | 52 | 204 | 3.0 | 10.0 | 0.00 | 0.26 | 0.09 | 80 | 1013.1 |
| 20260506041537 | 52 | 221 | 4.0 | 10.0 | 0.00 | 0.26 | 0.09 | 80 | 1013.1 |
| 20260506041028 | 52 | 240 | 2.0 | 5.0 | 0.00 | 0.26 | 0.09 | 80 | 1013.3 |
| 20260506040552 | 52 | 224 | 2.0 | 7.0 | 0.01 | 0.26 | 0.09 | 80 | 1013.3 |
| 20260506040034 | 52 | 194 | 3.0 | 7.0 | 0.01 | 0.26 | 0.09 | 80 | 1013.3 |
| 20260506035522 | 52 | 174 | 2.0 | 7.0 | 0.02 | 0.26 | 0.09 | 80 | 1013.4 |
| 20260506035027 | 52 | 238 | 4.0 | 7.0 | 0.02 | 0.26 | 0.09 | 80 | 1013.4 |
| 20260506034534 | 52 | 248 | 4.0 | 7.0 | 0.02 | 0.26 | 0.09 | 80 | 1013.4 |
| 20260506034038 | 52 | 226 | 4.0 | 6.0 | 0.02 | 0.26 | 0.09 | 80 | 1013.5 |
| 20260506033527 | 52 | 216 | 3.0 | 6.0 | 0.02 | 0.26 | 0.09 | 80 | 1013.5 |
| 20260506033031 | 52 | 250 | 3.0 | 6.0 | 0.02 | 0.26 | 0.09 | 80 | 1013.5 |
| 20260506032520 | 52 | 222 | 2.0 | 6.0 | 0.02 | 0.26 | 0.09 | 80 | 1013.5 |
| 20260506032030 | 52 | 219 | 2.0 | 6.0 | 0.02 | 0.26 | 0.09 | 80 | 1013.5 |
| 20260506031539 | 52 | 233 | 1.0 | 9.0 | 0.02 | 0.26 | 0.09 | 80 | 1013.5 |
| 20260506030543 | 52 | 231 | 3.0 | 5.0 | 0.02 | 0.25 | 0.09 | 80 | 1013.6 |
| 20260506030030 | 52 | 222 | 2.0 | 9.0 | 0.02 | 0.25 | 0.09 | 80 | 1013.6 |
| 20260506025539 | 52 | 249 | 3.0 | 9.0 | 0.01 | 0.24 | 0.08 | 80 | 1013.4 |
| 20260506025026 | 52 | 185 | 3.0 | 7.0 | 0.01 | 0.24 | 0.07 | 80 | 1013.4 |
| 20260506024532 | 52 | 238 | 3.0 | 6.0 | 0.01 | 0.24 | 0.07 | 80 | 1013.4 |
| 20260506024036 | 52 | 222 | 3.0 | 6.0 | 0.02 | 0.24 | 0.07 | 80 | 1013.4 |
| 20260506023522 | 52 | 208 | 3.0 | 9.0 | 0.02 | 0.24 | 0.07 | 80 | 1013.4 |
| 20260506023028 | 52 | 186 | 4.0 | 9.0 | 0.02 | 0.24 | 0.07 | 80 | 1013.4 |
| 20260506022024 | 53 | 192 | 3.0 | 9.0 | 0.02 | 0.24 | 0.07 | 80 | 1013.5 |
| 20260506021537 | 53 | 192 | 4.0 | 9.0 | 0.02 | 0.24 | 0.07 | 80 | 1013.5 |
| 20260506021021 | 53 | 210 | 3.0 | 10.0 | 0.02 | 0.24 | 0.07 | 80 | 1013.5 |
| 20260506020029 | 53 | 274 | 5.0 | 11.0 | 0.02 | 0.24 | 0.07 | 80 | 1013.5 |
| 20260506015026 | 53 | 217 | 2.0 | 7.0 | 0.02 | 0.24 | 0.06 | 80 | 1013.6 |
| 20260506014534 | 53 | 217 | 2.0 | 7.0 | 0.02 | 0.24 | 0.06 | 80 | 1013.6 |
| 20260506013528 | 53 | 208 | 3.0 | 10.0 | 0.01 | 0.23 | 0.06 | 80 | 1013.7 |
| 20260506013031 | 53 | 194 | 3.0 | 7.0 | 0.00 | 0.22 | 0.05 | 80 | 1013.7 |
| 20260506012520 | 53 | 227 | 4.0 | 9.0 | 0.00 | 0.22 | 0.05 | 80 | 1013.7 |
| 20260506012025 | 53 | 203 | 3.0 | 9.0 | 0.00 | 0.22 | 0.05 | 80 | 1013.7 |
| 20260506011537 | 53 | 187 | 2.0 | 5.0 | 0.01 | 0.22 | 0.05 | 80 | 1013.7 |
| 20260506011039 | 53 | 217 | 1.0 | 5.0 | 0.02 | 0.22 | 0.05 | 80 | 1013.9 |
| 20260506010601 | 53 | 195 | 2.0 | 6.0 | 0.03 | 0.22 | 0.05 | 80 | 1013.9 |
| 20260506010024 | 53 | 210 | 1.0 | 5.0 | 0.05 | 0.22 | 0.05 | 80 | 1013.9 |
| 20260506005532 | 53 | 161 | 3.0 | 6.0 | 0.05 | 0.22 | 0.05 | 80 | 1014.1 |
| 20260506005036 | 53 | 226 | 3.0 | 6.0 | 0.05 | 0.24 | 0.05 | 80 | 1014.1 |
| 20260506004525 | 53 | 233 | 1.0 | 6.0 | 0.05 | 0.24 | 0.05 | 80 | 1014.1 |
| 20260506003540 | 53 | 248 | 4.0 | 11.0 | 0.07 | 0.24 | 0.05 | 80 | 1014.2 |
| 20260506003025 | 53 | 255 | 3.0 | 11.0 | 0.07 | 0.24 | 0.05 | 80 | 1014.2 |
| 20260506002533 | 54 | 224 | 4.0 | 13.0 | 0.07 | 0.24 | 0.05 | 80 | 1014.2 |
| 20260506002021 | 54 | 272 | 4.0 | 17.0 | 0.09 | 0.24 | 0.05 | 80 | 1014.2 |
| 20260506001530 | 54 | 188 | 8.0 | 20.0 | 0.09 | 0.23 | 0.04 | 80 | 1014.2 |
| 20260506001036 | 54 | 308 | 7.0 | 20.0 | 0.08 | 0.22 | 0.03 | 80 | 1014.2 |
| 20260506000557 | 54 | 217 | 5.0 | 14.0 | 0.06 | 0.20 | 0.02 | 80 | 1014.2 |
| 20260506000038 | 54 | 277 | 6.0 | 12.0 | 0.06 | 0.20 | 0.01 | 80 | 1014.2 |
| 20260505235526 | 53 | 276 | 6.0 | 17.0 | 0.05 | 0.19 | 0.19 | 80 | 1014.5 |
| 20260505235031 | 53 | 288 | 5.0 | 17.0 | 0.05 | 0.24 | 0.19 | 80 | 1014.5 |
| 20260505234537 | 53 | 295 | 5.0 | 11.0 | 0.05 | 0.24 | 0.19 | 80 | 1014.5 |
| 20260505234023 | 53 | 279 | 4.0 | 9.0 | 0.03 | 0.22 | 0.17 | 80 | 1014.2 |
| 20260505233532 | 53 | 267 | 4.0 | 9.0 | 0.02 | 0.21 | 0.17 | 80 | 1014.2 |
| 20260505233022 | 53 | 213 | 4.0 | 9.0 | 0.02 | 0.21 | 0.17 | 80 | 1014.2 |
| 20260505232530 | 53 | 221 | 4.0 | 7.0 | 0.02 | 0.21 | 0.17 | 80 | 1014.2 |
| 20260505232034 | 53 | 193 | 2.0 | 9.0 | 0.01 | 0.20 | 0.15 | 80 | 1014.2 |
| 20260505231521 | 53 | 133 | 4.0 | 9.0 | 0.00 | 0.19 | 0.14 | 80 | 1014.2 |
| 20260505231027 | 53 | 194 | 2.0 | 9.0 | 0.00 | 0.19 | 0.14 | 80 | 1014.2 |
| 20260505230550 | 53 | 212 | 3.0 | 9.0 | 0.00 | 0.19 | 0.14 | 80 | 1014.2 |
| 20260505225526 | 54 | 198 | 3.0 | 9.0 | 0.00 | 0.19 | 0.14 | 80 | 1014.4 |
| 20260505225032 | 54 | 236 | 4.0 | 11.0 | 0.01 | 0.22 | 0.14 | 80 | 1014.4 |
| 20260505224539 | 54 | 238 | 4.0 | 11.0 | 0.01 | 0.22 | 0.14 | 80 | 1014.4 |
| 20260505224028 | 54 | 200 | 3.0 | 11.0 | 0.01 | 0.22 | 0.14 | 80 | 1014.5 |
| 20260505223040 | 54 | 217 | 5.0 | 10.0 | 0.02 | 0.22 | 0.14 | 80 | 1014.5 |
| 20260505222528 | 54 | 240 | 2.0 | 7.0 | 0.02 | 0.22 | 0.14 | 80 | 1014.4 |
| 20260505222034 | 54 | 260 | 2.0 | 7.0 | 0.02 | 0.22 | 0.14 | 80 | 1014.4 |
| 20260505221523 | 54 | 191 | 3.0 | 7.0 | 0.02 | 0.22 | 0.14 | 80 | 1014.4 |
| 20260505220554 | 55 | 221 | 1.0 | 6.0 | 0.02 | 0.22 | 0.14 | 80 | 1014.5 |
| 20260505220035 | 55 | 244 | 2.0 | 6.0 | 0.02 | 0.22 | 0.14 | 80 | 1014.5 |
| 20260505215523 | 55 | 221 | 1.0 | 6.0 | 0.02 | 0.22 | 0.14 | 80 | 1014.6 |
| 20260505215030 | 55 | 226 | 2.0 | 6.0 | 0.02 | 0.25 | 0.14 | 80 | 1014.6 |
| 20260505214523 | 55 | 314 | 1.0 | 9.0 | 0.02 | 0.24 | 0.13 | 80 | 1014.6 |
| 20260505214027 | 55 | 254 | 1.0 | 9.0 | 0.02 | 0.24 | 0.13 | 80 | 1014.6 |
| 20260505213536 | 55 | 274 | 2.0 | 10.0 | 0.01 | 0.24 | 0.13 | 80 | 1014.6 |
| 20260505213037 | 55 | 250 | 2.0 | 10.0 | 0.01 | 0.24 | 0.13 | 80 | 1014.6 |
| 20260505212524 | 55 | 231 | 4.0 | 8.0 | 0.01 | 0.24 | 0.13 | 80 | 1014.6 |
| 20260505212030 | 55 | 217 | 2.0 | 7.0 | 0.01 | 0.24 | 0.13 | 80 | 1014.6 |
| 20260505211539 | 55 | 222 | 4.0 | 7.0 | 0.01 | 0.24 | 0.13 | 80 | 1014.6 |
| 20260505211024 | 55 | 212 | 2.0 | 7.0 | 0.01 | 0.24 | 0.13 | 80 | 1014.7 |
| 20260505210546 | 55 | 226 | 2.0 | 7.0 | 0.00 | 0.23 | 0.12 | 80 | 1014.7 |
| 20260505210029 | 55 | 198 | 1.0 | 5.0 | 0.00 | 0.23 | 0.12 | 80 | 1014.7 |
| 20260505205523 | 55 | 217 | 1.0 | 5.0 | 0.00 | 0.23 | 0.12 | 80 | 1014.6 |
| 20260505205030 | 55 | 224 | 1.0 | 5.0 | 0.00 | 0.25 | 0.12 | 80 | 1014.6 |
| 20260505204539 | 55 | 219 | 2.0 | 5.0 | 0.00 | 0.25 | 0.12 | 80 | 1014.6 |
| 20260505204027 | 55 | 212 | 2.0 | 6.0 | 0.00 | 0.25 | 0.12 | 80 | 1014.6 |
| 20260505203534 | 55 | 182 | 3.0 | 6.0 | 0.00 | 0.25 | 0.12 | 80 | 1014.6 |
| 20260505203037 | 55 | 203 | 1.0 | 6.0 | 0.00 | 0.25 | 0.12 | 80 | 1014.6 |
| 20260505202526 | 55 | 198 | 1.0 | 5.0 | 0.00 | 0.25 | 0.12 | 80 | 1014.4 |
| 20260505201523 | 55 | 195 | 2.0 | 7.0 | 0.00 | 0.25 | 0.12 | 80 | 1014.4 |
| 20260505201037 | 55 | 207 | 3.0 | 7.0 | 0.00 | 0.25 | 0.12 | 80 | 1014.2 |
| 20260505200558 | 55 | 262 | 1.0 | 3.0 | 0.00 | 0.25 | 0.12 | 80 | 1014.2 |
| 20260505200026 | 55 | 262 | 0.0 | 3.0 | 0.00 | 0.25 | 0.12 | 80 | 1014.2 |
| 20260505195536 | 55 | 258 | 0.0 | 6.0 | 0.00 | 0.25 | 0.12 | 80 | 1014.1 |
| 20260505194530 | 55 | 261 | 1.0 | 5.0 | 0.00 | 0.26 | 0.12 | 80 | 1014.1 |
| 20260505194037 | 55 | 278 | 2.0 | 5.0 | 0.00 | 0.26 | 0.12 | 80 | 1014.1 |
| 20260505193034 | 55 | 227 | 1.0 | 3.0 | 0.02 | 0.26 | 0.12 | 80 | 1014.1 |
| 20260505192522 | 55 | 210 | 0.0 | 4.0 | 0.04 | 0.26 | 0.12 | 80 | 1014.0 |
| 20260505192027 | 55 | 224 | 0.0 | 4.0 | 0.04 | 0.26 | 0.12 | 80 | 1014.0 |
| 20260505191534 | 55 | 239 | 2.0 | 4.0 | 0.04 | 0.26 | 0.12 | 80 | 1014.0 |
| 20260505191037 | 55 | 238 | 1.0 | 3.0 | 0.04 | 0.26 | 0.12 | 80 | 1014.0 |
| 20260505190557 | 55 | 238 | 1.0 | 3.0 | 0.04 | 0.26 | 0.12 | 80 | 1014.0 |
| 20260505190022 | 55 | 239 | 0.0 | 3.0 | 0.04 | 0.26 | 0.12 | 80 | 1014.0 |
| 20260505185530 | 55 | 239 | 0.0 | 3.0 | 0.04 | 0.26 | 0.12 | 80 | 1013.9 |
| 20260505185036 | 55 | 239 | 0.0 | 4.0 | 0.04 | 0.26 | 0.12 | 80 | 1013.9 |
| 20260505184524 | 55 | 239 | 2.0 | 8.0 | 0.04 | 0.26 | 0.12 | 80 | 1013.9 |
| 20260505184030 | 55 | 260 | 5.0 | 13.0 | 0.04 | 0.26 | 0.12 | 80 | 1014.1 |
| 20260505183537 | 55 | 283 | 5.0 | 19.0 | 0.04 | 0.26 | 0.12 | 80 | 1014.1 |
| 20260505183022 | 56 | 300 | 7.0 | 19.0 | 0.02 | 0.24 | 0.10 | 80 | 1014.1 |
| 20260505181525 | 58 | 306 | 5.0 | 13.0 | 0.00 | 0.22 | 0.08 | 80 | 1013.7 |
| 20260505181032 | 58 | 304 | 6.0 | 11.0 | 0.00 | 0.22 | 0.08 | 80 | 1013.7 |
| 20260505180557 | 58 | 280 | 6.0 | 13.0 | 0.00 | 0.22 | 0.08 | 80 | 1013.7 |
| 20260505180039 | 58 | 271 | 5.0 | 14.0 | 0.00 | 0.22 | 0.08 | 80 | 1013.7 |
| 20260505175527 | 59 | 292 | 4.0 | 14.0 | 0.00 | 0.22 | 0.08 | 80 | 1013.8 |
| 20260505175033 | 59 | 294 | 5.0 | 15.0 | 0.00 | 0.22 | 0.08 | 80 | 1013.8 |